CDT,Max TemperatureF,Mean TemperatureF,Min TemperatureF,Max Dew PointF,MeanDew PointF,Min DewpointF,Max Humidity, Mean Humidity, Min Humidity, Max Sea Level PressureIn, Mean Sea Level PressureIn, Min Sea Level PressureIn, Max VisibilityMiles, Mean VisibilityMiles, Min VisibilityMiles, Max Wind SpeedMPH, Mean Wind SpeedMPH, Max Gust SpeedMPH,PrecipitationIn, CloudCover, Events, WindDirDegrees
2012-9-1,93,80,66,68,65,62,93,66,38,30.05,29.96,29.91,10,10,10,12,6,15,0.00,0,,3
2012-9-2,102,84,66,69,63,55,87,55,23,29.94,29.87,29.78,10,10,9,16,8,21,0.00,0,,154
2012-9-3,102,87,72,72,66,62,79,54,29,29.85,29.81,29.76,10,10,9,24,7,30,0.12,0,Thunderstorm,51
2012-9-4,99,85,70,73,67,55,93,59,24,29.92,29.83,29.72,10,9,4,36,8,44,0.20,2,Rain-Thunderstorm,189
2012-9-5,91,79,66,68,62,55,87,62,36,29.91,29.84,29.77,10,10,10,17,7,21,0.00,0,,25
2012-9-6,95,78,61,64,59,55,84,58,31,29.98,29.89,29.76,10,9,2,18,7,23,0.00,0,,188
2012-9-7,78,67,56,61,55,49,80,61,41,30.14,29.97,29.77,10,10,6,30,11,39,0.26,2,Rain-Thunderstorm,340
2012-9-8,82,67,51,51,47,42,86,55,24,30.24,30.14,30.04,10,10,10,16,7,23,0.00,0,,290
2012-9-9,78,65,52,49,46,43,77,53,29,30.23,30.15,30.05,10,10,10,17,6,22,0.00,0,,41
2012-9-10,90,70,49,52,48,43,86,53,19,30.12,30.03,29.91,10,10,10,23,11,30,0.00,0,,162
2012-9-11,95,75,55,49,47,44,72,45,17,29.94,29.88,29.81,10,10,10,32,16,41,0.00,0,,169
2012-9-12,92,75,58,57,52,45,56,44,32,30.17,29.93,29.83,10,10,6,36,15,41,0.07,2,Rain,156
2012-9-13,60,57,53,55,52,48,93,80,67,30.42,30.32,30.17,10,10,6,22,12,26,0.19,5,Rain,16
2012-9-14,74,61,47,49,45,40,89,60,31,30.42,30.36,30.29,10,10,10,16,6,20,0.01,0,,10
2012-9-15,75,61,47,61,53,43,87,74,61,30.29,30.19,30.10,10,10,10,13,4,16,0.00,6,,104
2012-9-16,79,69,59,61,58,55,93,69,45,30.11,30.01,29.91,10,10,10,13,5,16,0.00,4,,172
2012-9-17,71,62,52,58,54,46,93,77,61,30.09,29.95,29.88,10,9,5,25,9,29,0.00,3,,358
2012-9-18,79,62,44,46,44,40,86,57,28,30.14,30.05,29.95,10,10,4,17,7,23,0.00,0,,188
2012-9-19,94,75,56,51,46,39,62,41,20,29.97,29.89,29.78,10,10,10,29,14,37,0.00,0,,200
2012-9-20,81,65,49,43,39,32,63,40,17,30.06,30.00,29.93,10,10,10,13,5,20,0.00,0,,57
2012-9-21,85,69,52,46,41,38,66,43,19,29.97,29.92,29.86,10,10,10,25,10,32,0.00,0,,295
2012-9-22,73,61,48,43,33,24,71,45,19,30.27,30.18,29.96,10,10,10,18,9,23,0.00,0,,36
2012-9-23,74,59,43,35,31,25,62,40,17,30.32,30.24,30.16,10,10,10,16,7,22,0.00,0,,117
2012-9-24,83,67,51,55,47,36,67,50,33,30.14,29.94,29.78,10,10,10,14,6,18,0.00,0,,113
2012-9-25,82,70,58,61,55,52,80,60,40,29.86,29.81,29.76,10,10,10,23,6,31,T,1,Rain-Thunderstorm,37
2012-9-26,70,65,60,63,61,57,97,85,73,30.14,30.00,29.84,10,7,0,18,6,22,1.21,6,Fog-Rain-Thunderstorm,97
2012-9-27,75,66,56,61,57,53,100,75,49,30.18,30.14,30.09,10,6,0,10,5,14,0.00,3,Fog,20
2012-9-28,75,66,56,59,54,45,93,64,35,30.19,30.14,30.09,10,6,0,14,5,18,0.00,4,Fog,43
2012-9-29,73,63,52,52,49,43,96,66,35,30.16,30.11,30.04,10,9,4,10,4,15,0.00,1,,36
2012-9-30,77,64,51,51,47,41,83,56,28,30.04,29.98,29.90,10,10,10,7,2,9,0.00,0,,349